contact:dominique.lefevre@mio.osupytheas.fr, maurice.libes@osupytheas.fr, didier.mallarino@osupytheas.fr
Project:EMSO http://www.emso-fr.org/EMSO-France
Depth: 2436.0 m
Title:EMSO Ligure Ouest : Data MII capteur AQUADOPP
Date,Latitude,Longitude,X_East,Y_North,Z_Up,Amplitude_X,Amplitude_Y,Amplitude_Z,Batterie,SoundSpeed,Heading,Pitch,Roll,Pressure,TIS,Speed,Direction
, degrees North, degrees East, m.s-1, m.s-1,m.s-1, 1, 1, 1, Volt, m.s-1, degree, degree, degree, dbar, degree_C, m.s-1, degree
2021-08-23T00:04:03,42.805,6.029,0.006,0.007,0.017,100.0,101.0,100.0,13.3,1505.2,325.0,-0.7,1.8,2470.517,13.28,0.009,40.6
2021-08-23T00:07:03,42.805,6.029,-0.003,0.0,-0.01,101.0,98.0,99.0,13.3,1505.2,330.6,-0.8,1.8,2470.478,13.28,0.003,270.0
2021-08-23T00:10:03,42.805,6.029,-0.014,0.002,-0.006,98.0,102.0,99.0,13.4,1505.2,327.0,-0.8,1.8,2470.53,13.28,0.014,278.1
2021-08-23T00:13:03,42.805,6.029,-0.011,0.016,0.03,100.0,98.0,100.0,13.4,1505.2,330.1,-0.8,1.8,2470.487,13.28,0.019,325.5
2021-08-23T00:16:03,42.805,6.029,0.0,-0.005,-0.017,100.0,98.0,100.0,13.4,1505.2,325.4,-0.7,1.8,2470.477,13.28,0.005,180.0
2021-08-23T00:19:03,42.805,6.029,-0.049,0.017,0.014,100.0,100.0,100.0,13.4,1505.2,326.3,-0.8,1.8,2470.504,13.28,0.051,289.1
2021-08-23T00:22:03,42.805,6.029,-0.029,0.031,0.029,99.0,100.0,99.0,13.3,1505.2,327.4,-0.8,1.9,2470.489,13.28,0.042,316.9
2021-08-23T00:25:03,42.805,6.029,-0.006,-0.009,0.01,100.0,100.0,101.0,13.4,1505.2,327.1,-0.7,1.8,2470.508,13.28,0.01,213.7
2021-08-23T00:28:03,42.805,6.029,-0.019,0.016,-0.004,99.0,100.0,99.0,13.4,1505.2,329.6,-0.8,1.9,2470.468,13.28,0.024,310.1
2021-08-23T00:31:03,42.805,6.029,-0.018,0.014,0.02,100.0,102.0,98.0,13.4,1505.2,327.4,-0.8,1.8,2470.489,13.28,0.022,307.9
2021-08-23T00:34:03,42.805,6.029,-0.022,0.018,-0.002,100.0,98.0,100.0,13.3,1505.2,326.8,-0.7,1.8,2470.48,13.28,0.028,309.3
2021-08-23T00:37:03,42.805,6.029,-0.009,0.031,0.008,100.0,102.0,99.0,13.3,1505.2,328.1,-0.7,1.8,2470.477,13.28,0.032,343.8
2021-08-23T00:40:03,42.805,6.029,-0.037,0.019,-0.017,100.0,101.0,99.0,13.4,1505.2,327.3,-0.8,1.8,2470.475,13.29,0.041,297.2
2021-08-23T00:43:03,42.805,6.029,-0.017,0.016,-0.017,100.0,100.0,99.0,13.4,1505.2,325.6,-0.8,1.8,2470.483,13.29,0.023,313.3
2021-08-23T00:46:03,42.805,6.029,0.002,-0.007,-0.022,99.0,101.0,100.0,13.4,1505.2,329.8,-0.8,1.8,2470.467,13.28,0.007,164.1
2021-08-23T00:49:03,42.805,6.029,0.006,0.018,0.009,99.0,100.0,99.0,13.4,1505.2,326.1,-0.8,1.8,2470.462,13.28,0.018,18.4
2021-08-23T00:52:03,42.805,6.029,-0.024,0.019,-0.035,99.0,100.0,100.0,13.3,1505.2,329.2,-0.8,1.8,2470.477,13.28,0.03,308.4
2021-08-23T00:55:03,42.805,6.029,-0.011,0.003,-0.005,99.0,101.0,99.0,13.3,1505.2,327.2,-0.8,1.8,2470.47,13.28,0.011,285.3
2021-08-23T00:58:03,42.805,6.029,0.003,0.002,-0.015,101.0,100.0,98.0,13.4,1505.2,326.6,-0.7,1.8,2470.423,13.29,0.003,56.3
2021-08-23T01:04:03,42.805,6.029,-0.012,0.029,0.034,103.0,102.0,101.0,13.4,1505.2,325.8,-0.7,1.8,2470.449,13.28,0.031,337.5
2021-08-23T01:07:03,42.805,6.029,0.009,-0.01,0.005,100.0,100.0,100.0,13.4,1505.2,328.9,-0.7,1.8,2470.451,13.28,0.013,138.0
2021-08-23T01:10:03,42.805,6.029,0.008,0.006,0.003,100.0,100.0,99.0,13.3,1505.2,329.0,-0.8,1.8,2470.458,13.28,0.01,53.1
2021-08-23T01:13:03,42.805,6.029,-0.033,0.018,0.013,100.0,102.0,98.0,13.3,1505.2,326.9,-0.8,1.8,2470.49,13.28,0.037,298.6
2021-08-23T01:16:03,42.805,6.029,-0.017,0.01,0.006,100.0,101.0,100.0,13.4,1505.2,330.8,-0.7,1.8,2470.442,13.28,0.019,300.5
2021-08-23T01:19:03,42.805,6.029,-0.013,0.028,0.004,99.0,101.0,99.0,13.4,1505.2,330.8,-0.8,1.9,2470.452,13.28,0.03,335.1
2021-08-23T01:22:03,42.805,6.029,-0.001,-0.007,-0.01,101.0,100.0,100.0,13.4,1505.2,331.2,-0.8,1.9,2470.429,13.29,0.007,188.1
2021-08-23T01:25:03,42.805,6.029,-0.012,-0.003,-0.012,99.0,101.0,99.0,13.4,1505.2,326.8,-0.8,1.8,2470.458,13.29,0.012,256.0
2021-08-23T01:28:03,42.805,6.029,-0.016,0.014,-0.008,99.0,101.0,100.0,13.4,1505.2,327.7,-0.7,1.8,2470.45,13.29,0.021,311.2
2021-08-23T01:31:03,42.805,6.029,-0.009,0.01,0.008,99.0,100.0,100.0,13.4,1505.2,330.5,-0.7,1.8,2470.419,13.29,0.013,318.0
2021-08-23T01:34:03,42.805,6.029,-0.02,0.038,-0.006,100.0,101.0,100.0,13.4,1505.2,329.2,-0.8,1.8,2470.431,13.29,0.042,332.2
2021-08-23T01:37:03,42.805,6.029,-0.024,0.014,0.021,100.0,101.0,100.0,13.4,1505.2,325.3,-0.8,1.8,2470.423,13.29,0.027,300.3
2021-08-23T01:40:03,42.805,6.029,-0.006,0.022,0.031,101.0,99.0,102.0,13.4,1505.2,328.8,-0.7,1.8,2470.394,13.29,0.022,344.7
2021-08-23T01:43:03,42.805,6.029,-0.002,0.012,0.015,99.0,101.0,100.0,13.4,1505.2,326.3,-0.7,1.8,2470.452,13.29,0.012,350.5
2021-08-23T01:46:03,42.805,6.029,-0.006,0.002,-0.001,102.0,99.0,100.0,13.4,1505.2,329.0,-0.8,1.8,2470.403,13.29,0.006,288.4
2021-08-23T01:49:03,42.805,6.029,-0.004,0.003,-0.01,101.0,100.0,100.0,13.4,1505.2,325.2,-0.8,1.8,2470.441,13.29,0.005,306.9
2021-08-23T01:52:03,42.805,6.029,-0.011,0.016,0.0,99.0,101.0,100.0,13.3,1505.2,331.1,-0.7,1.8,2470.455,13.29,0.019,325.5
2021-08-23T01:55:03,42.805,6.029,-0.009,-0.003,-0.051,101.0,100.0,100.0,13.4,1505.2,329.5,-0.7,1.8,2470.422,13.29,0.009,251.6
2021-08-23T01:58:03,42.805,6.029,-0.016,0.028,-0.002,100.0,101.0,100.0,13.4,1505.2,330.6,-0.7,1.8,2470.404,13.29,0.032,330.3
2021-08-23T02:04:03,42.805,6.029,-0.007,0.008,-0.023,99.0,101.0,100.0,13.4,1505.2,327.1,-0.8,1.8,2470.396,13.28,0.01,318.8
2021-08-23T02:07:03,42.805,6.029,-0.001,-0.024,-0.046,102.0,101.0,99.0,13.3,1505.2,325.4,-0.7,1.8,2470.358,13.28,0.024,182.4
2021-08-23T02:10:03,42.805,6.029,-0.023,0.006,-0.003,99.0,101.0,100.0,13.4,1505.2,324.8,-0.8,1.8,2470.398,13.28,0.023,284.6
2021-08-23T02:13:03,42.805,6.029,0.008,0.021,0.005,100.0,100.0,100.0,13.3,1505.2,325.3,-0.7,1.8,2470.362,13.28,0.022,20.9
2021-08-23T02:16:03,42.805,6.029,0.012,0.008,0.015,99.0,101.0,100.0,13.4,1505.2,328.0,-0.7,1.9,2470.365,13.29,0.014,56.3
2021-08-23T02:19:03,42.805,6.029,-0.002,0.029,0.048,100.0,101.0,99.0,13.4,1505.2,331.1,-0.8,1.8,2470.395,13.29,0.029,356.1
2021-08-23T02:22:03,42.805,6.029,0.001,0.013,0.0,99.0,101.0,100.0,13.4,1505.2,327.7,-0.7,1.9,2470.399,13.29,0.013,4.4
2021-08-23T02:25:03,42.805,6.029,-0.012,0.009,0.003,101.0,100.0,99.0,13.4,1505.2,326.1,-0.7,1.8,2470.433,13.29,0.015,306.9
2021-08-23T02:28:03,42.805,6.029,-0.006,-0.021,-0.047,100.0,103.0,99.0,13.4,1505.2,328.8,-0.7,1.8,2470.406,13.29,0.021,195.9
2021-08-23T02:31:03,42.805,6.029,-0.019,-0.004,-0.012,99.0,102.0,101.0,13.4,1505.2,326.4,-0.8,1.8,2470.386,13.29,0.019,258.1
2021-08-23T02:34:03,42.805,6.029,-0.024,0.016,-0.021,100.0,100.0,100.0,13.4,1505.2,326.7,-0.7,1.8,2470.397,13.29,0.028,303.7
2021-08-23T02:37:03,42.805,6.029,0.0,0.015,0.032,100.0,100.0,100.0,13.4,1505.2,327.9,-0.7,1.8,2470.371,13.29,0.015,0.0
2021-08-23T02:40:03,42.805,6.029,0.001,-0.006,-0.024,101.0,101.0,99.0,13.3,1505.2,326.7,-0.7,1.8,2470.404,13.29,0.006,170.5
2021-08-23T02:43:03,42.805,6.029,0.003,-0.014,-0.013,100.0,102.0,98.0,13.4,1505.2,328.0,-0.8,1.8,2470.411,13.29,0.014,167.9
2021-08-23T02:46:03,42.805,6.029,0.0,0.006,0.0,101.0,100.0,99.0,13.4,1505.2,326.6,-0.7,1.8,2470.391,13.29,0.006,0.0
2021-08-23T02:49:03,42.805,6.029,0.011,0.002,0.005,97.0,102.0,101.0,13.4,1505.2,331.0,-0.7,1.8,2470.409,13.29,0.011,79.7
2021-08-23T02:52:03,42.805,6.029,0.012,-0.011,0.002,98.0,101.0,101.0,13.4,1505.2,328.6,-0.8,1.8,2470.417,13.29,0.016,132.5
2021-08-23T02:55:03,42.805,6.029,0.006,0.031,0.017,99.0,100.0,100.0,13.4,1505.2,327.6,-0.8,1.9,2470.419,13.29,0.031,11.0
2021-08-23T02:58:03,42.805,6.029,-0.006,0.01,-0.013,100.0,100.0,99.0,13.4,1505.2,328.6,-0.7,1.8,2470.405,13.29,0.011,329.0
2021-08-23T03:04:03,42.805,6.029,-0.002,0.015,-0.012,100.0,102.0,99.0,13.4,1505.2,325.4,-0.7,1.8,2470.464,13.28,0.015,352.4
2021-08-23T03:07:03,42.805,6.029,0.0,0.015,0.01,101.0,101.0,99.0,13.3,1505.2,327.1,-0.8,1.8,2470.461,13.28,0.015,0.0
2021-08-23T03:10:03,42.805,6.029,-0.02,0.0,0.003,99.0,101.0,99.0,13.4,1505.2,327.1,-0.8,1.8,2470.452,13.28,0.02,270.0
2021-08-23T03:13:03,42.805,6.029,-0.006,0.02,0.044,100.0,101.0,99.0,13.4,1505.2,325.2,-0.8,1.8,2470.432,13.28,0.02,343.3
2021-08-23T03:16:03,42.805,6.029,-0.003,0.002,0.008,99.0,100.0,100.0,13.3,1505.2,326.0,-0.7,1.8,2470.453,13.29,0.003,303.7
2021-08-23T03:19:03,42.805,6.029,0.002,0.02,0.004,99.0,100.0,100.0,13.4,1505.2,327.0,-0.7,1.8,2470.448,13.29,0.02,5.7
2021-08-23T03:22:03,42.805,6.029,0.01,0.0,0.003,100.0,101.0,100.0,13.4,1505.2,326.9,-0.7,1.8,2470.42,13.29,0.01,90.0
2021-08-23T03:25:03,42.805,6.029,0.015,-0.008,-0.007,99.0,100.0,100.0,13.4,1505.2,330.5,-0.7,1.8,2470.457,13.29,0.017,118.1
2021-08-23T03:28:03,42.805,6.029,0.004,-0.013,-0.027,99.0,101.0,101.0,13.4,1505.2,328.7,-0.7,1.8,2470.416,13.29,0.013,162.9
2021-08-23T03:31:03,42.805,6.029,-0.006,0.001,-0.047,102.0,100.0,99.0,13.4,1505.2,330.1,-0.8,1.8,2470.468,13.29,0.006,279.5
2021-08-23T03:34:03,42.805,6.029,-0.006,-0.01,-0.004,100.0,101.0,99.0,13.4,1505.2,327.6,-0.8,1.8,2470.401,13.29,0.011,211.0
2021-08-23T03:37:03,42.805,6.029,-0.015,-0.016,-0.025,99.0,101.0,99.0,13.4,1505.2,326.9,-0.7,1.8,2470.438,13.29,0.021,223.1
2021-08-23T03:40:03,42.805,6.029,-0.002,-0.003,-0.037,99.0,101.0,100.0,13.4,1505.2,330.4,-0.7,1.8,2470.457,13.29,0.003,213.7
2021-08-23T03:43:03,42.805,6.029,-0.003,-0.014,-0.011,100.0,100.0,100.0,13.3,1505.2,328.6,-0.8,1.8,2470.431,13.29,0.014,192.1
2021-08-23T03:46:03,42.805,6.029,-0.019,0.016,0.046,99.0,101.0,99.0,13.4,1505.2,329.6,-0.7,1.8,2470.467,13.29,0.024,310.1
2021-08-23T03:49:03,42.805,6.029,-0.029,0.019,-0.01,99.0,101.0,99.0,13.4,1505.2,327.4,-0.8,1.8,2470.453,13.29,0.034,303.2
2021-08-23T03:52:03,42.805,6.029,-0.012,0.008,0.002,99.0,99.0,100.0,13.4,1505.2,331.1,-0.7,1.8,2470.476,13.29,0.014,303.7
2021-08-23T03:55:03,42.805,6.029,-0.006,0.01,0.016,100.0,100.0,100.0,13.4,1505.2,329.8,-0.7,1.8,2470.43,13.29,0.011,329.0
2021-08-23T03:58:03,42.805,6.029,0.0,-0.005,-0.022,99.0,101.0,100.0,13.4,1505.2,330.0,-0.8,1.8,2470.453,13.29,0.005,180.0
2021-08-23T04:04:03,42.805,6.029,0.007,-0.003,-0.006,99.0,101.0,100.0,13.4,1505.2,327.0,-0.7,1.8,2470.488,13.28,0.007,113.2
2021-08-23T04:07:03,42.805,6.029,-0.001,0.02,0.03,99.0,100.0,100.0,13.3,1505.2,327.1,-0.8,1.8,2470.492,13.29,0.02,357.1
2021-08-23T04:10:03,42.805,6.029,0.001,0.005,-0.001,100.0,101.0,99.0,13.4,1505.2,326.7,-0.8,1.8,2470.494,13.29,0.005,11.3
2021-08-23T04:13:03,42.805,6.029,-0.008,0.0,-0.024,100.0,101.0,99.0,13.4,1505.2,328.0,-0.8,1.8,2470.477,13.29,0.008,270.0
2021-08-23T04:16:03,42.805,6.029,0.008,-0.01,-0.046,102.0,100.0,99.0,13.3,1505.2,325.7,-0.7,1.8,2470.499,13.29,0.012,141.3
2021-08-23T04:19:03,42.805,6.029,0.003,0.012,0.006,99.0,100.0,99.0,13.4,1505.2,330.7,-0.8,1.8,2470.483,13.29,0.012,14.0
2021-08-23T04:22:03,42.805,6.029,0.004,0.016,-0.007,99.0,101.0,99.0,13.4,1505.2,329.2,-0.7,1.9,2470.467,13.29,0.016,14.0
2021-08-23T04:25:03,42.805,6.029,-0.028,-0.012,-0.019,100.0,101.0,99.0,13.4,1505.2,325.3,-0.7,1.8,2470.441,13.29,0.03,246.8
2021-08-23T04:28:03,42.805,6.029,-0.033,0.021,0.006,99.0,101.0,99.0,13.4,1505.2,327.0,-0.7,1.8,2470.497,13.29,0.039,302.5
2021-08-23T04:31:03,42.805,6.029,-0.001,0.029,0.024,99.0,102.0,99.0,13.4,1505.2,330.6,-0.7,1.8,2470.492,13.29,0.029,358.0
2021-08-23T04:34:03,42.805,6.029,-0.018,-0.01,-0.01,100.0,100.0,100.0,13.4,1505.2,326.7,-0.8,1.8,2470.465,13.29,0.02,240.9
2021-08-23T04:37:03,42.805,6.029,-0.004,0.011,0.0,99.0,100.0,100.0,13.4,1505.2,325.5,-0.7,1.8,2470.518,13.29,0.011,340.0
2021-08-23T04:40:03,42.805,6.029,0.025,0.005,-0.023,99.0,103.0,100.0,13.4,1505.2,328.3,-0.7,1.8,2470.482,13.29,0.025,78.7
2021-08-23T04:43:03,42.805,6.029,-0.02,-0.006,-0.001,100.0,101.0,100.0,13.4,1505.2,326.1,-0.8,1.8,2470.511,13.29,0.02,253.3
2021-08-23T04:46:03,42.805,6.029,0.0,0.01,0.0,100.0,101.0,99.0,13.4,1505.2,325.0,-0.8,1.8,2470.458,13.29,0.01,0.0
2021-08-23T04:49:03,42.805,6.029,0.013,-0.009,-0.025,99.0,100.0,100.0,13.4,1505.2,328.8,-0.7,1.8,2470.442,13.29,0.015,124.7
2021-08-23T04:52:03,42.805,6.029,0.02,-0.017,-0.026,99.0,101.0,100.0,13.4,1505.2,329.1,-0.8,1.8,2470.495,13.29,0.026,130.4
2021-08-23T04:55:03,42.805,6.029,0.012,-0.035,-0.066,99.0,100.0,99.0,13.4,1505.2,327.9,-0.8,1.8,2470.47,13.29,0.037,161.1
2021-08-23T04:58:03,42.805,6.029,-0.026,0.018,-0.026,99.0,100.0,100.0,13.3,1505.2,329.4,-0.7,1.8,2470.462,13.29,0.031,304.7
2021-08-23T05:04:03,42.805,6.029,-0.003,0.01,-0.012,99.0,100.0,99.0,13.3,1505.2,328.0,-0.8,1.8,2470.529,13.28,0.01,343.3
2021-08-23T05:07:03,42.805,6.029,0.002,0.014,0.033,99.0,102.0,99.0,13.4,1505.2,328.5,-0.8,1.8,2470.535,13.28,0.014,8.1
2021-08-23T05:10:03,42.805,6.029,-0.037,0.007,-0.025,100.0,101.0,98.0,13.3,1505.2,328.4,-0.7,1.8,2470.528,13.29,0.037,280.7
2021-08-23T05:13:03,42.805,6.029,-0.016,-0.001,-0.012,99.0,101.0,99.0,13.4,1505.2,330.7,-0.8,1.8,2470.492,13.29,0.016,266.4
2021-08-23T05:16:03,42.805,6.029,-0.01,-0.001,0.005,98.0,102.0,99.0,13.4,1505.2,326.3,-0.8,1.8,2470.54,13.29,0.01,264.3
2021-08-23T05:19:03,42.805,6.029,-0.01,0.006,-0.013,99.0,102.0,100.0,13.4,1505.2,326.0,-0.8,1.9,2470.535,13.29,0.011,301.0
2021-08-23T05:22:03,42.805,6.029,-0.013,0.008,-0.011,99.0,100.0,100.0,13.4,1505.2,325.4,-0.8,1.8,2470.534,13.29,0.015,301.6
2021-08-23T05:25:03,42.805,6.029,-0.027,0.015,-0.002,101.0,100.0,99.0,13.4,1505.2,328.1,-0.7,1.8,2470.517,13.29,0.03,299.1
2021-08-23T05:28:03,42.805,6.029,-0.006,0.031,-0.017,99.0,101.0,99.0,13.4,1505.2,329.4,-0.8,1.8,2470.522,13.29,0.031,349.0
2021-08-23T05:31:03,42.805,6.029,-0.007,-0.011,-0.026,99.0,99.0,99.0,13.4,1505.2,330.5,-0.7,1.8,2470.497,13.29,0.013,212.5
2021-08-23T05:34:03,42.805,6.029,0.001,0.023,-0.007,99.0,100.0,100.0,13.4,1505.2,328.6,-0.7,1.8,2470.493,13.29,0.023,2.5
2021-08-23T05:37:03,42.805,6.029,-0.005,0.005,0.019,100.0,100.0,101.0,13.4,1505.2,325.4,-0.7,1.8,2470.55,13.29,0.007,315.0
2021-08-23T05:40:03,42.805,6.029,-0.012,0.032,0.0,100.0,100.0,100.0,13.3,1505.2,329.2,-0.8,1.8,2470.487,13.29,0.034,339.4
2021-08-23T05:43:03,42.805,6.029,-0.002,0.0,-0.034,99.0,102.0,98.0,13.3,1505.2,327.5,-0.7,1.8,2470.518,13.29,0.002,270.0
2021-08-23T05:46:03,42.805,6.029,0.012,-0.008,0.005,99.0,100.0,100.0,13.4,1505.2,330.2,-0.8,1.8,2470.475,13.29,0.014,123.7
2021-08-23T05:49:03,42.805,6.029,-0.008,0.017,0.028,101.0,101.0,98.0,13.4,1505.2,327.5,-0.8,1.8,2470.498,13.29,0.018,334.8
2021-08-23T05:52:03,42.805,6.029,-0.006,-0.001,0.003,100.0,100.0,99.0,13.4,1505.2,327.7,-0.8,1.8,2470.535,13.29,0.006,260.5
2021-08-23T05:55:03,42.805,6.029,-0.001,0.011,0.003,99.0,102.0,100.0,13.3,1505.2,327.2,-0.7,1.8,2470.546,13.29,0.011,354.8
2021-08-23T05:58:03,42.805,6.029,0.003,0.008,0.009,99.0,100.0,100.0,13.4,1505.2,326.0,-0.7,1.8,2470.526,13.29,0.008,20.6
2021-08-23T06:04:03,42.805,6.029,-0.017,0.023,0.037,99.0,99.0,99.0,13.4,1505.2,325.5,-0.7,1.8,2470.545,13.29,0.028,323.5
2021-08-23T06:07:03,42.805,6.029,0.005,-0.002,-0.002,100.0,100.0,100.0,13.4,1505.2,326.9,-0.8,1.8,2470.547,13.29,0.005,111.8
2021-08-23T06:10:03,42.805,6.029,-0.003,0.017,0.019,101.0,101.0,99.0,13.4,1505.2,331.2,-0.8,1.9,2470.54,13.29,0.017,350.0
2021-08-23T06:13:03,42.805,6.029,0.001,0.015,0.0,99.0,100.0,100.0,13.4,1505.2,331.1,-0.7,1.8,2470.533,13.29,0.015,3.8
2021-08-23T06:16:03,42.805,6.029,-0.036,0.023,-0.044,100.0,100.0,101.0,13.4,1505.2,329.1,-0.8,1.8,2470.563,13.29,0.042,302.6
2021-08-23T06:19:03,42.805,6.029,-0.021,0.009,-0.003,102.0,100.0,99.0,13.4,1505.2,327.2,-0.7,1.8,2470.548,13.29,0.022,293.2
2021-08-23T06:22:03,42.805,6.029,-0.003,-0.001,-0.005,99.0,101.0,100.0,13.4,1505.2,325.5,-0.8,1.8,2470.577,13.29,0.003,251.6
2021-08-23T06:25:03,42.805,6.029,-0.032,0.008,-0.022,99.0,102.0,100.0,13.3,1505.2,328.9,-0.8,1.8,2470.579,13.29,0.032,284.0
2021-08-23T06:28:03,42.805,6.029,-0.004,0.019,0.014,100.0,100.0,99.0,13.4,1505.2,328.6,-0.8,1.8,2470.539,13.29,0.019,348.1
2021-08-23T06:31:03,42.805,6.029,0.001,-0.02,-0.007,100.0,100.0,98.0,13.3,1505.2,328.8,-0.7,1.8,2470.562,13.29,0.02,177.1
2021-08-23T06:34:03,42.805,6.029,0.0,0.01,0.045,101.0,100.0,100.0,13.3,1505.2,328.6,-0.7,1.8,2470.579,13.29,0.01,0.0
2021-08-23T06:37:03,42.805,6.029,-0.004,-0.006,0.003,101.0,100.0,99.0,13.4,1505.2,325.3,-0.7,1.8,2470.571,13.29,0.007,213.7
2021-08-23T06:40:03,42.805,6.029,-0.014,-0.002,-0.026,100.0,100.0,99.0,13.4,1505.2,330.1,-0.8,1.8,2470.584,13.29,0.014,261.9
2021-08-23T06:43:03,42.805,6.029,0.002,0.006,0.047,100.0,100.0,100.0,13.3,1505.2,326.5,-0.7,1.8,2470.564,13.29,0.006,18.4
2021-08-23T06:46:03,42.805,6.029,0.007,0.009,0.019,100.0,101.0,100.0,13.4,1505.2,330.6,-0.7,1.9,2470.535,13.29,0.011,37.9
2021-08-23T06:49:03,42.805,6.029,0.012,-0.006,0.02,98.0,101.0,100.0,13.3,1505.2,328.8,-0.8,1.8,2470.555,13.29,0.013,116.6
2021-08-23T06:52:03,42.805,6.029,-0.022,-0.013,-0.047,98.0,101.0,102.0,13.4,1505.2,328.6,-0.8,1.8,2470.567,13.29,0.025,239.4
2021-08-23T06:55:03,42.805,6.029,0.004,0.014,-0.008,100.0,100.0,100.0,13.4,1505.2,327.7,-0.8,1.8,2470.531,13.29,0.014,15.9
2021-08-23T06:58:03,42.805,6.029,-0.026,-0.005,0.0,100.0,101.0,100.0,13.4,1505.2,327.7,-0.7,1.8,2470.596,13.29,0.026,259.1
2021-08-23T07:04:03,42.805,6.029,-0.012,0.0,-0.015,101.0,102.0,101.0,13.4,1505.2,325.3,-0.8,1.8,2470.624,13.28,0.012,270.0
2021-08-23T07:07:03,42.805,6.029,0.004,0.009,-0.006,100.0,102.0,100.0,13.4,1505.2,329.8,-0.8,1.8,2470.613,13.28,0.009,24.0
2021-08-23T07:10:03,42.805,6.029,0.003,0.002,-0.01,100.0,102.0,98.0,13.4,1505.2,328.4,-0.7,1.8,2470.612,13.28,0.003,56.3
2021-08-23T07:13:03,42.805,6.029,-0.005,0.017,-0.011,101.0,101.0,100.0,13.3,1505.2,328.4,-0.7,1.8,2470.62,13.29,0.017,343.6
2021-08-23T07:16:03,42.805,6.029,-0.01,0.002,-0.001,102.0,100.0,100.0,13.4,1505.2,328.1,-0.7,1.9,2470.573,13.29,0.01,281.3
2021-08-23T07:19:03,42.805,6.029,-0.003,0.009,-0.007,101.0,101.0,99.0,13.3,1505.2,325.0,-0.7,1.8,2470.606,13.29,0.009,341.6
2021-08-23T07:22:03,42.805,6.029,-0.017,0.006,0.013,99.0,102.0,99.0,13.4,1505.2,328.8,-0.8,1.8,2470.621,13.29,0.018,289.4
2021-08-23T07:25:03,42.805,6.029,-0.023,0.008,-0.026,100.0,100.0,101.0,13.4,1505.2,325.5,-0.8,1.9,2470.578,13.29,0.024,289.2
2021-08-23T07:28:03,42.805,6.029,-0.023,0.01,0.018,101.0,101.0,100.0,13.3,1505.2,325.8,-0.8,1.8,2470.588,13.29,0.025,293.5
2021-08-23T07:31:03,42.805,6.029,-0.012,0.004,-0.017,100.0,100.0,101.0,13.4,1505.2,328.4,-0.8,1.8,2470.578,13.29,0.012,288.4
2021-08-23T07:34:03,42.805,6.029,0.042,0.005,0.007,100.0,101.0,101.0,13.3,1505.2,326.7,-0.7,1.8,2470.588,13.29,0.042,83.2
2021-08-23T07:37:03,42.805,6.029,-0.001,-0.014,-0.005,101.0,100.0,100.0,13.4,1505.2,329.8,-0.8,1.8,2470.586,13.29,0.014,184.1
2021-08-23T07:40:03,42.805,6.029,0.0,-0.018,-0.034,100.0,102.0,100.0,13.4,1505.2,328.0,-0.7,1.8,2470.588,13.29,0.018,180.0
2021-08-23T07:43:03,42.805,6.029,-0.005,0.002,0.011,101.0,100.0,100.0,13.3,1505.2,326.7,-0.8,1.8,2470.6,13.29,0.005,291.8
2021-08-23T07:46:03,42.805,6.029,-0.008,-0.008,-0.003,100.0,101.0,100.0,13.4,1505.2,329.6,-0.8,1.8,2470.623,13.29,0.011,225.0
2021-08-23T07:49:03,42.805,6.029,-0.002,-0.01,-0.029,99.0,102.0,99.0,13.4,1505.2,324.7,-0.7,1.8,2470.616,13.29,0.01,191.3
2021-08-23T07:52:03,42.805,6.029,0.002,-0.002,0.03,98.0,100.0,101.0,13.4,1505.2,327.9,-0.7,1.8,2470.616,13.29,0.002,135.0
2021-08-23T07:55:03,42.805,6.029,0.016,-0.003,-0.017,100.0,100.0,100.0,13.4,1505.2,325.3,-0.7,1.8,2470.583,13.29,0.016,100.6
2021-08-23T07:58:03,42.805,6.029,0.014,0.002,-0.005,100.0,102.0,99.0,13.3,1505.2,330.7,-0.8,1.8,2470.594,13.28,0.014,81.9
2021-08-23T08:04:03,42.805,6.029,0.006,0.003,0.032,100.0,103.0,98.0,13.4,1505.2,329.2,-0.8,1.8,2470.652,13.28,0.006,63.4
2021-08-23T08:07:03,42.805,6.029,-0.017,0.011,0.034,100.0,100.0,100.0,13.3,1505.2,327.1,-0.8,1.9,2470.62,13.28,0.02,302.9
2021-08-23T08:10:03,42.805,6.029,-0.023,0.005,-0.016,102.0,100.0,99.0,13.4,1505.2,328.6,-0.8,1.8,2470.581,13.28,0.023,282.3
2021-08-23T08:13:03,42.805,6.029,0.01,-0.004,-0.007,98.0,101.0,101.0,13.4,1505.2,330.4,-0.7,1.8,2470.595,13.28,0.01,111.8
2021-08-23T08:16:03,42.805,6.029,0.016,-0.013,-0.058,100.0,101.0,100.0,13.4,1505.2,327.6,-0.8,1.8,2470.603,13.28,0.02,129.1
2021-08-23T08:19:03,42.805,6.029,0.009,0.01,-0.015,100.0,101.0,100.0,13.3,1505.2,328.6,-0.8,1.8,2470.613,13.28,0.013,42.0
2021-08-23T08:22:03,42.805,6.029,-0.006,0.013,-0.018,101.0,100.0,99.0,13.4,1505.2,326.6,-0.7,1.8,2470.591,13.28,0.014,335.2
2021-08-23T08:25:03,42.805,6.029,0.025,-0.013,-0.014,99.0,102.0,100.0,13.3,1505.2,327.0,-0.8,1.8,2470.607,13.28,0.028,117.5
2021-08-23T08:28:03,42.805,6.029,0.011,-0.007,-0.016,101.0,100.0,101.0,13.4,1505.2,329.2,-0.8,1.8,2470.576,13.28,0.013,122.5
2021-08-23T08:31:03,42.805,6.029,-0.013,-0.001,-0.044,100.0,102.0,98.0,13.3,1505.2,325.5,-0.7,1.8,2470.602,13.28,0.013,265.6
2021-08-23T08:34:03,42.805,6.029,0.014,-0.014,0.004,99.0,101.0,100.0,13.4,1505.2,328.3,-0.8,1.8,2470.603,13.28,0.019,135.0
2021-08-23T08:37:03,42.805,6.029,-0.006,-0.006,-0.016,99.0,101.0,100.0,13.3,1505.2,330.6,-0.7,1.8,2470.559,13.28,0.008,225.0
2021-08-23T08:40:03,42.805,6.029,0.032,0.012,0.012,100.0,100.0,100.0,13.4,1505.2,328.8,-0.8,1.9,2470.545,13.28,0.034,69.4
2021-08-23T08:43:03,42.805,6.029,-0.008,0.009,-0.021,100.0,102.0,100.0,13.3,1505.2,328.4,-0.7,1.8,2470.564,13.28,0.012,318.4
2021-08-23T08:46:03,42.805,6.029,-0.011,-0.004,-0.039,100.0,101.0,99.0,13.4,1505.2,329.1,-0.8,1.8,2470.562,13.28,0.011,250.0
2021-08-23T08:49:03,42.805,6.029,0.007,0.005,0.008,101.0,101.0,99.0,13.4,1505.2,328.2,-0.8,1.8,2470.598,13.28,0.008,54.5
2021-08-23T08:52:03,42.805,6.029,-0.009,0.013,-0.011,100.0,102.0,99.0,13.4,1505.2,328.9,-0.7,1.8,2470.56,13.28,0.015,325.3
2021-08-23T08:55:03,42.805,6.029,0.008,-0.006,-0.01,100.0,101.0,99.0,13.4,1505.2,325.0,-0.8,1.8,2470.547,13.28,0.01,126.9
2021-08-23T08:58:03,42.805,6.029,0.022,0.0,-0.019,101.0,100.0,100.0,13.4,1505.2,325.7,-0.8,1.8,2470.567,13.28,0.022,90.0
2021-08-23T09:04:03,42.805,6.029,0.016,-0.005,-0.015,100.0,100.0,99.0,13.4,1505.2,327.6,-0.8,1.8,2470.598,13.28,0.016,107.4
2021-08-23T09:07:03,42.805,6.029,-0.001,0.01,-0.021,99.0,100.0,100.0,13.4,1505.2,325.3,-0.8,1.8,2470.606,13.28,0.01,354.3
2021-08-23T09:10:03,42.805,6.029,0.001,-0.02,-0.021,101.0,101.0,99.0,13.4,1505.2,330.4,-0.8,1.8,2470.554,13.28,0.02,177.1
2021-08-23T09:13:03,42.805,6.029,-0.025,0.02,-0.016,100.0,101.0,99.0,13.4,1505.2,328.3,-0.8,1.8,2470.593,13.28,0.032,308.7
2021-08-23T09:16:03,42.805,6.029,-0.008,0.002,-0.036,100.0,101.0,100.0,13.4,1505.2,329.9,-0.7,1.8,2470.571,13.28,0.008,284.0
2021-08-23T09:19:03,42.805,6.029,0.001,0.017,-0.012,100.0,101.0,100.0,13.4,1505.2,327.3,-0.7,1.8,2470.535,13.28,0.017,3.4
2021-08-23T09:22:03,42.805,6.029,-0.002,0.003,-0.003,102.0,98.0,99.0,13.4,1505.2,325.0,-0.7,1.8,2470.57,13.28,0.003,326.3
2021-08-23T09:25:03,42.805,6.029,-0.008,0.019,-0.007,100.0,100.0,99.0,13.4,1505.2,328.3,-0.7,1.8,2470.545,13.28,0.02,337.2
2021-08-23T09:28:03,42.805,6.029,-0.016,0.013,-0.006,101.0,100.0,99.0,13.4,1505.2,326.0,-0.8,1.9,2470.569,13.28,0.02,309.1
2021-08-23T09:31:03,42.805,6.029,-0.039,0.017,-0.001,99.0,100.0,101.0,13.4,1505.2,328.8,-0.7,1.8,2470.554,13.28,0.042,293.5
2021-08-23T09:34:03,42.805,6.029,-0.002,0.02,0.021,98.0,101.0,100.0,13.4,1505.2,325.3,-0.7,1.8,2470.559,13.28,0.02,354.3
2021-08-23T09:37:03,42.805,6.029,0.001,-0.003,-0.007,99.0,102.0,100.0,13.4,1505.2,324.8,-0.8,1.8,2470.601,13.28,0.003,161.6
2021-08-23T09:40:03,42.805,6.029,0.028,0.004,0.016,100.0,100.0,100.0,13.3,1505.2,329.6,-0.8,1.8,2470.568,13.28,0.028,81.9
2021-08-23T09:43:03,42.805,6.029,0.002,-0.02,-0.037,100.0,100.0,99.0,13.4,1505.2,327.1,-0.8,1.8,2470.545,13.28,0.02,174.3
2021-08-23T09:46:03,42.805,6.029,0.01,-0.016,-0.035,100.0,101.0,99.0,13.4,1505.2,325.7,-0.8,1.8,2470.554,13.28,0.018,148.0
2021-08-23T09:49:03,42.805,6.029,0.013,0.005,-0.041,100.0,100.0,100.0,13.4,1505.2,327.0,-0.7,1.8,2470.532,13.28,0.013,69.0
2021-08-23T09:52:03,42.805,6.029,0.005,0.021,-0.012,100.0,100.0,99.0,13.3,1505.2,325.7,-0.8,1.8,2470.529,13.28,0.021,13.4
2021-08-23T09:55:03,42.805,6.029,-0.008,-0.011,-0.031,98.0,102.0,100.0,13.4,1505.2,327.8,-0.8,1.8,2470.505,13.28,0.013,216.0
2021-08-23T09:58:03,42.805,6.029,0.001,-0.009,-0.029,99.0,101.0,101.0,13.4,1505.2,325.0,-0.8,1.8,2470.555,13.28,0.009,173.7
2021-08-23T10:04:03,42.805,6.029,-0.006,0.009,-0.018,100.0,100.0,100.0,13.4,1505.2,325.2,-0.7,1.8,2470.544,13.28,0.01,326.3